| time (UTC) | temp C | wind direction | speed KPH | gust KPH | rain 1hr cm | rain 24hr cm | rain mn cm | humidity % | barometer mb |
| 20260906130815 | 27 | 212 | 0.0 | 3.2 | 0.00 | 0.00 | 0.00 | 73 | 1012.4 |
| 20260906130329 | 27 | 212 | 1.6 | 6.4 | 0.00 | 0.00 | 0.00 | 73 | 1012.4 |
| 20260906130107 | 26 | 211 | 0.0 | 6.4 | 0.00 | 0.00 | 0.00 | 73 | 1012.3 |
| 20260906125902 | 27 | 212 | 3.2 | 6.4 | 0.00 | 0.00 | 0.00 | 73 | 1012.3 |
| 20260906125354 | 27 | 220 | 1.6 | 8.0 | 0.00 | 0.00 | 0.00 | 73 | 1012.4 |
| 20260906124817 | 26 | 218 | 3.2 | 8.0 | 0.00 | 0.00 | 0.00 | 74 | 1012.4 |
| 20260906124532 | 26 | 219 | 3.2 | 8.0 | 0.00 | 0.00 | 0.00 | 74 | 1012.3 |
| 20260906124330 | 26 | 205 | 3.2 | 8.0 | 0.00 | 0.00 | 0.00 | 75 | 1012.3 |
| 20260906123815 | 26 | 221 | 3.2 | 8.0 | 0.00 | 0.00 | 0.00 | 75 | 1012.3 |
| 20260906123327 | 26 | 220 | 1.6 | 4.8 | 0.00 | 0.00 | 0.00 | 76 | 1012.2 |
| 20260906123052 | 26 | 220 | 0.0 | 4.8 | 0.00 | 0.00 | 0.00 | 76 | 1012.1 |
| 20260906122831 | 26 | 220 | 1.6 | 4.8 | 0.00 | 0.00 | 0.00 | 76 | 1012.2 |
| 20260906122324 | 26 | 215 | 1.6 | 4.8 | 0.00 | 0.00 | 0.00 | 76 | 1012.0 |
| 20260906121837 | 25 | 215 | 1.6 | 4.8 | 0.00 | 0.00 | 0.00 | 77 | 1012.0 |
| 20260906121511 | 25 | 215 | 1.6 | 6.4 | 0.00 | 0.00 | 0.00 | 77 | 1011.9 |
| 20260906121320 | 25 | 215 | 1.6 | 8.0 | 0.00 | 0.00 | 0.00 | 77 | 1012.0 |
| 20260906120855 | 25 | 217 | 3.2 | 8.0 | 0.00 | 0.00 | 0.00 | 77 | 1012.1 |
| 20260906120317 | 25 | 230 | 1.6 | 4.8 | 0.00 | 0.00 | 0.00 | 77 | 1012.2 |
| 20260906120007 | 25 | 230 | 1.6 | 6.4 | 0.00 | 0.00 | 0.00 | 77 | 1012.1 |
| 20260906115830 | 25 | 230 | 1.6 | 6.4 | 0.00 | 0.00 | 0.00 | 77 | 1012.3 |
| 20260906115315 | 25 | 230 | 3.2 | 6.4 | 0.00 | 0.00 | 0.00 | 77 | 1012.3 |
| 20260906114828 | 25 | 228 | 1.6 | 3.2 | 0.00 | 0.00 | 0.00 | 77 | 1012.4 |
| 20260906114542 | 24 | 228 | 0.0 | 0.0 | 0.00 | 0.00 | 0.00 | 77 | 1012.3 |
| 20260906114318 | 25 | 228 | 0.0 | 1.6 | 0.00 | 0.00 | 0.00 | 77 | 1012.4 |
| 20260906113817 | 25 | 228 | 0.0 | 3.2 | 0.00 | 0.00 | 0.00 | 77 | 1012.4 |
| 20260906113330 | 25 | 228 | 1.6 | 4.8 | 0.00 | 0.00 | 0.00 | 77 | 1012.4 |
| 20260906113045 | 24 | 228 | 0.0 | 4.8 | 0.00 | 0.00 | 0.00 | 77 | 1012.3 |
| 20260906112814 | 25 | 228 | 1.6 | 4.8 | 0.00 | 0.00 | 0.00 | 77 | 1012.3 |
| 20260906112327 | 25 | 228 | 0.0 | 3.2 | 0.00 | 0.00 | 0.00 | 77 | 1012.2 |
| 20260906111840 | 25 | 228 | 0.0 | 3.2 | 0.00 | 0.00 | 0.00 | 77 | 1012.2 |
| 20260906111619 | 24 | 228 | 0.0 | 3.2 | 0.00 | 0.00 | 0.00 | 77 | 1012.1 |
| 20260906111324 | 25 | 228 | 1.6 | 3.2 | 0.00 | 0.00 | 0.00 | 77 | 1012.1 |
| 20260906110817 | 25 | 228 | 1.6 | 3.2 | 0.00 | 0.00 | 0.00 | 76 | 1012.0 |
| 20260906110320 | 25 | 228 | 0.0 | 1.6 | 0.00 | 0.00 | 0.00 | 76 | 1011.7 |
| 20260906110017 | 24 | 228 | 0.0 | 0.0 | 0.00 | 0.03 | 0.00 | 76 | 1011.5 |
| 20260906105851 | 25 | 228 | 0.0 | 0.0 | 0.00 | 0.03 | 0.00 | 76 | 1011.6 |
| 20260906105322 | 25 | 228 | 0.0 | 1.6 | 0.00 | 0.03 | 0.00 | 76 | 1011.5 |
| 20260906104826 | 25 | 228 | 0.0 | 3.2 | 0.00 | 0.03 | 0.00 | 76 | 1011.5 |
| 20260906104520 | 25 | 228 | 0.0 | 3.2 | 0.00 | 0.03 | 0.00 | 76 | 1011.3 |
| 20260906104319 | 25 | 228 | 1.6 | 4.8 | 0.00 | 0.03 | 0.00 | 76 | 1011.3 |
| 20260906103833 | 25 | 228 | 1.6 | 4.8 | 0.00 | 0.03 | 0.00 | 76 | 1011.3 |
| 20260906103337 | 25 | 228 | 0.0 | 1.6 | 0.00 | 0.03 | 0.00 | 76 | 1011.3 |
| 20260906103014 | 25 | 228 | 0.0 | 4.8 | 0.00 | 0.03 | 0.00 | 76 | 1011.1 |
| 20260906102850 | 25 | 228 | 0.0 | 6.4 | 0.00 | 0.03 | 0.00 | 76 | 1011.2 |
| 20260906102342 | 25 | 228 | 3.2 | 6.4 | 0.00 | 0.03 | 0.00 | 76 | 1011.2 |
| 20260906101831 | 25 | 214 | 0.0 | 0.0 | 0.00 | 0.03 | 0.00 | 76 | 1011.2 |
| 20260906101558 | 25 | 214 | 0.0 | 0.0 | 0.00 | 0.03 | 0.00 | 76 | 1011.2 |
| 20260906101315 | 25 | 214 | 0.0 | 3.2 | 0.00 | 0.03 | 0.00 | 76 | 1011.3 |
| 20260906100828 | 25 | 214 | 0.0 | 3.2 | 0.00 | 0.03 | 0.00 | 76 | 1011.3 |
| 20260906100341 | 25 | 214 | 0.0 | 1.6 | 0.00 | 0.03 | 0.00 | 76 | 1011.3 |
| 20260906100021 | 25 | 214 | 0.0 | 3.2 | 0.00 | 0.03 | 0.00 | 75 | 1011.2 |
| 20260906095824 | 25 | 214 | 0.0 | 3.2 | 0.00 | 0.03 | 0.00 | 75 | 1011.3 |
| 20260906095337 | 25 | 214 | 0.0 | 3.2 | 0.00 | 0.03 | 0.00 | 75 | 1011.3 |
| 20260906094820 | 25 | 214 | 0.0 | 4.8 | 0.00 | 0.03 | 0.00 | 75 | 1011.2 |
| 20260906094532 | 25 | 214 | 1.6 | 4.8 | 0.00 | 0.03 | 0.00 | 75 | 1011.0 |
| 20260906094333 | 25 | 213 | 1.6 | 6.4 | 0.00 | 0.03 | 0.00 | 75 | 1011.1 |
| 20260906093817 | 25 | 213 | 1.6 | 8.0 | 0.00 | 0.03 | 0.00 | 75 | 1011.0 |
| 20260906093350 | 25 | 221 | 3.2 | 6.4 | 0.00 | 0.03 | 0.00 | 75 | 1011.0 |
| 20260906093031 | 25 | 231 | 1.6 | 9.7 | 0.00 | 0.03 | 0.00 | 75 | 1010.9 |
| 20260906092842 | 25 | 227 | 3.2 | 9.7 | 0.00 | 0.03 | 0.00 | 75 | 1011.0 |
| 20260906092334 | 25 | 239 | 4.8 | 8.0 | 0.00 | 0.03 | 0.00 | 75 | 1010.9 |
| 20260906091818 | 25 | 242 | 3.2 | 8.0 | 0.00 | 0.03 | 0.00 | 75 | 1010.9 |
| 20260906091530 | 25 | 219 | 3.2 | 8.0 | 0.00 | 0.03 | 0.00 | 75 | 1010.8 |
| 20260906091331 | 25 | 223 | 4.8 | 8.0 | 0.00 | 0.03 | 0.00 | 75 | 1011.0 |
| 20260906090835 | 25 | 227 | 3.2 | 8.0 | 0.00 | 0.03 | 0.00 | 75 | 1010.9 |
| 20260906090327 | 25 | 207 | 3.2 | 8.0 | 0.00 | 0.03 | 0.00 | 75 | 1010.9 |
| 20260906090028 | 25 | 234 | 1.6 | 8.0 | 0.00 | 0.03 | 0.00 | 75 | 1010.9 |
| 20260906085820 | 25 | 234 | 4.8 | 8.0 | 0.00 | 0.03 | 0.00 | 75 | 1011.0 |
| 20260906085323 | 25 | 213 | 3.2 | 6.4 | 0.00 | 0.03 | 0.00 | 75 | 1010.9 |
| 20260906084853 | 26 | 207 | 1.6 | 6.4 | 0.00 | 0.03 | 0.00 | 75 | 1010.9 |
| 20260906084528 | 25 | 207 | 1.6 | 6.4 | 0.00 | 0.03 | 0.00 | 75 | 1010.8 |
| 20260906084324 | 26 | 195 | 1.6 | 3.2 | 0.00 | 0.03 | 0.00 | 75 | 1010.9 |
| 20260906083828 | 26 | 195 | 0.0 | 1.6 | 0.00 | 0.03 | 0.00 | 75 | 1011.0 |
| 20260906083322 | 26 | 195 | 0.0 | 1.6 | 0.00 | 0.03 | 0.00 | 75 | 1010.9 |
| 20260906083051 | 25 | 195 | 0.0 | 1.6 | 0.00 | 0.03 | 0.00 | 75 | 1010.7 |
| 20260906082826 | 26 | 195 | 0.0 | 1.6 | 0.00 | 0.03 | 0.00 | 75 | 1010.8 |
| 20260906082315 | 26 | 195 | 0.0 | 1.6 | 0.00 | 0.03 | 0.00 | 75 | 1010.8 |
| 20260906081821 | 26 | 195 | 0.0 | 3.2 | 0.00 | 0.03 | 0.00 | 74 | 1010.8 |
| 20260906081519 | 26 | 195 | 0.0 | 3.2 | 0.00 | 0.03 | 0.00 | 74 | 1010.7 |
| 20260906081314 | 26 | 195 | 0.0 | 3.2 | 0.00 | 0.03 | 0.00 | 74 | 1010.9 |
| 20260906080818 | 26 | 199 | 0.0 | 6.4 | 0.00 | 0.03 | 0.00 | 74 | 1010.9 |
| 20260906080331 | 26 | 185 | 1.6 | 6.4 | 0.00 | 0.03 | 0.00 | 74 | 1010.9 |
| 20260906080039 | 26 | 187 | 1.6 | 6.4 | 0.00 | 0.03 | 0.00 | 74 | 1010.8 |
| 20260906075815 | 26 | 233 | 0.0 | 1.6 | 0.00 | 0.03 | 0.00 | 74 | 1010.9 |
| 20260906075328 | 26 | 233 | 0.0 | 3.2 | 0.00 | 0.03 | 0.00 | 74 | 1010.9 |
| 20260906074821 | 26 | 233 | 0.0 | 3.2 | 0.00 | 0.03 | 0.00 | 74 | 1010.9 |
| 20260906074557 | 26 | 233 | 0.0 | 3.2 | 0.00 | 0.03 | 0.00 | 74 | 1010.8 |
| 20260906074324 | 26 | 233 | 0.0 | 4.8 | 0.00 | 0.03 | 0.00 | 74 | 1011.0 |
| 20260906073817 | 26 | 233 | 1.6 | 4.8 | 0.00 | 0.03 | 0.00 | 74 | 1011.0 |
| 20260906073321 | 26 | 233 | 3.2 | 4.8 | 0.00 | 0.03 | 0.00 | 74 | 1011.0 |
| 20260906073013 | 26 | 233 | 0.0 | 6.4 | 0.00 | 0.03 | 0.00 | 74 | 1010.9 |
| 20260906072850 | 26 | 233 | 1.6 | 6.4 | 0.00 | 0.03 | 0.00 | 74 | 1011.0 |
| 20260906072322 | 26 | 233 | 3.2 | 6.4 | 0.00 | 0.03 | 0.00 | 74 | 1011.0 |
| 20260906071826 | 26 | 215 | 1.6 | 6.4 | 0.00 | 0.03 | 0.00 | 74 | 1011.0 |
| 20260906071510 | 26 | 215 | 1.6 | 6.4 | 0.00 | 0.03 | 0.00 | 74 | 1010.9 |
| 20260906071319 | 26 | 215 | 3.2 | 6.4 | 0.00 | 0.03 | 0.00 | 74 | 1011.0 |
| 20260906070853 | 26 | 223 | 1.6 | 4.8 | 0.00 | 0.03 | 0.00 | 74 | 1011.1 |
| 20260906070315 | 26 | 223 | 3.2 | 11.3 | 0.00 | 0.03 | 0.00 | 74 | 1011.1 |
| 20260906070010 | 26 | 223 | 4.8 | 11.3 | 0.00 | 0.03 | 0.00 | 74 | 1011.0 |
| 20260906065828 | 26 | 217 | 3.2 | 6.4 | 0.00 | 0.03 | 0.00 | 74 | 1011.1 |
| 20260906065341 | 26 | 241 | 1.6 | 4.8 | 0.00 | 0.03 | 0.00 | 74 | 1011.1 |
| 20260906064826 | 26 | 241 | 0.0 | 4.8 | 0.00 | 0.03 | 0.00 | 74 | 1011.1 |
| 20260906064530 | 26 | 241 | 1.6 | 4.8 | 0.00 | 0.03 | 0.00 | 74 | 1011.0 |
| 20260906064339 | 26 | 241 | 1.6 | 4.8 | 0.00 | 0.03 | 0.00 | 74 | 1011.2 |
| 20260906063823 | 26 | 241 | 0.0 | 4.8 | 0.00 | 0.03 | 0.00 | 74 | 1011.2 |
| 20260906063315 | 26 | 241 | 0.0 | 6.4 | 0.00 | 0.03 | 0.00 | 74 | 1011.2 |
| 20260906063051 | 26 | 241 | 1.6 | 6.4 | 0.00 | 0.03 | 0.00 | 74 | 1011.1 |
| 20260906062850 | 26 | 241 | 3.2 | 6.4 | 0.00 | 0.03 | 0.00 | 73 | 1011.2 |
| 20260906062333 | 26 | 234 | 3.2 | 6.4 | 0.00 | 0.03 | 0.00 | 73 | 1011.2 |
| 20260906061826 | 26 | 234 | 1.6 | 4.8 | 0.00 | 0.03 | 0.00 | 73 | 1011.3 |
| 20260906061552 | 26 | 234 | 0.0 | 4.8 | 0.00 | 0.03 | 0.00 | 73 | 1011.2 |
| 20260906061340 | 26 | 234 | 1.6 | 6.4 | 0.00 | 0.03 | 0.00 | 73 | 1011.3 |
| 20260906060823 | 26 | 233 | 1.6 | 6.4 | 0.00 | 0.03 | 0.00 | 73 | 1011.4 |
| 20260906060336 | 26 | 240 | 3.2 | 9.7 | 0.00 | 0.03 | 0.00 | 73 | 1011.3 |
| 20260906060049 | 26 | 242 | 1.6 | 9.7 | 0.00 | 0.03 | 0.00 | 73 | 1011.2 |
| 20260906055819 | 26 | 240 | 3.2 | 9.7 | 0.00 | 0.03 | 0.00 | 73 | 1011.3 |
| 20260906055329 | 26 | 233 | 4.8 | 8.0 | 0.00 | 0.03 | 0.00 | 73 | 1011.4 |
| 20260906054841 | 26 | 234 | 1.6 | 4.8 | 0.00 | 0.03 | 0.00 | 73 | 1011.6 |
| 20260906054504 | 26 | 234 | 1.6 | 4.8 | 0.00 | 0.03 | 0.00 | 73 | 1011.5 |
| 20260906054325 | 26 | 234 | 1.6 | 4.8 | 0.00 | 0.03 | 0.00 | 73 | 1011.6 |
| 20260906053838 | 27 | 234 | 1.6 | 4.8 | 0.00 | 0.03 | 0.00 | 73 | 1011.7 |
| 20260906053330 | 27 | 234 | 1.6 | 8.0 | 0.00 | 0.03 | 0.00 | 73 | 1011.7 |
| 20260906053005 | 26 | 234 | 3.2 | 8.0 | 0.00 | 0.03 | 0.00 | 73 | 1011.7 |
| 20260906052814 | 27 | 234 | 4.8 | 8.0 | 0.00 | 0.03 | 0.00 | 73 | 1011.8 |
| 20260906052327 | 27 | 221 | 1.6 | 6.4 | 0.00 | 0.03 | 0.00 | 73 | 1011.7 |
| 20260906051831 | 27 | 221 | 1.6 | 4.8 | 0.00 | 0.03 | 0.00 | 73 | 1011.8 |
| 20260906051523 | 26 | 221 | 0.0 | 6.4 | 0.00 | 0.03 | 0.00 | 73 | 1011.7 |
| 20260906051324 | 27 | 221 | 1.6 | 6.4 | 0.00 | 0.03 | 0.00 | 73 | 1011.8 |
| 20260906050828 | 27 | 221 | 1.6 | 6.4 | 0.00 | 0.03 | 0.00 | 73 | 1011.7 |
| 20260906050320 | 27 | 221 | 1.6 | 6.4 | 0.00 | 0.03 | 0.00 | 74 | 1011.8 |
| 20260906050045 | 26 | 221 | 1.6 | 6.4 | 0.00 | 0.03 | 0.03 | 74 | 1011.7 |
| 20260906045834 | 27 | 221 | 1.6 | 4.8 | 0.00 | 0.03 | 0.03 | 74 | 1011.8 |
| 20260906045408 | 27 | 221 | 1.6 | 4.8 | 0.00 | 0.03 | 0.03 | 74 | 1011.8 |
| 20260906044830 | 27 | 221 | 3.2 | 8.0 | 0.00 | 0.03 | 0.03 | 74 | 1011.8 |
| 20260906044551 | 26 | 221 | 1.6 | 8.0 | 0.00 | 0.03 | 0.03 | 74 | 1011.6 |
| 20260906044344 | 27 | 221 | 3.2 | 8.0 | 0.00 | 0.03 | 0.03 | 74 | 1011.7 |
| 20260906043827 | 27 | 246 | 3.2 | 6.4 | 0.00 | 0.03 | 0.03 | 74 | 1011.7 |
| 20260906043340 | 27 | 246 | 1.6 | 6.4 | 0.00 | 0.03 | 0.03 | 74 | 1011.6 |
| 20260906043103 | 26 | 246 | 1.6 | 6.4 | 0.00 | 0.03 | 0.03 | 74 | 1011.5 |
| 20260906042853 | 27 | 246 | 1.6 | 6.4 | 0.00 | 0.03 | 0.03 | 74 | 1011.7 |
| 20260906042353 | 27 | 246 | 1.6 | 4.8 | 0.00 | 0.03 | 0.03 | 74 | 1011.8 |
| 20260906041845 | 27 | 246 | 0.0 | 4.8 | 0.00 | 0.03 | 0.03 | 74 | 1011.8 |
| 20260906041601 | 26 | 246 | 0.0 | 4.8 | 0.00 | 0.03 | 0.03 | 74 | 1011.6 |
| 20260906041328 | 27 | 246 | 1.6 | 4.8 | 0.00 | 0.03 | 0.03 | 74 | 1011.8 |
| 20260906040841 | 27 | 250 | 0.0 | 4.8 | 0.00 | 0.03 | 0.03 | 73 | 1011.9 |
| 20260906040325 | 27 | 250 | 1.6 | 6.4 | 0.00 | 0.03 | 0.03 | 73 | 1012.0 |
| 20260906040026 | 26 | 250 | 1.6 | 6.4 | 0.00 | 0.03 | 0.03 | 73 | 1012.0 |
| 20260906035838 | 27 | 255 | 3.2 | 6.4 | 0.00 | 0.03 | 0.03 | 74 | 1012.1 |
| 20260906035352 | 27 | 235 | 3.2 | 6.4 | 0.00 | 0.03 | 0.03 | 74 | 1012.0 |
| 20260906034844 | 27 | 235 | 3.2 | 6.4 | 0.00 | 0.03 | 0.03 | 74 | 1012.0 |
| 20260906034516 | 26 | 235 | 1.6 | 6.4 | 0.00 | 0.03 | 0.03 | 73 | 1012.0 |
| 20260906034328 | 27 | 235 | 3.2 | 6.4 | 0.00 | 0.03 | 0.03 | 73 | 1012.0 |
| 20260906033840 | 27 | 236 | 1.6 | 6.4 | 0.00 | 0.03 | 0.03 | 73 | 1012.1 |
| 20260906033345 | 27 | 238 | 3.2 | 6.4 | 0.00 | 0.03 | 0.03 | 73 | 1012.3 |
| 20260906033048 | 26 | 223 | 1.6 | 6.4 | 0.00 | 0.03 | 0.03 | 73 | 1012.2 |
| 20260906032837 | 27 | 218 | 3.2 | 6.4 | 0.00 | 0.03 | 0.03 | 73 | 1012.4 |
| 20260906032341 | 26 | 219 | 3.2 | 6.4 | 0.00 | 0.03 | 0.03 | 73 | 1012.3 |
| 20260906031834 | 26 | 145 | 1.6 | 3.2 | 0.00 | 0.03 | 0.03 | 73 | 1012.5 |
| 20260906031556 | 26 | 145 | 0.0 | 1.6 | 0.00 | 0.03 | 0.03 | 73 | 1012.4 |
| 20260906031347 | 27 | 145 | 0.0 | 3.2 | 0.00 | 0.03 | 0.03 | 73 | 1012.4 |
| 20260906030830 | 26 | 145 | 0.0 | 3.2 | 0.00 | 0.03 | 0.03 | 73 | 1012.4 |
| 20260906030344 | 26 | 145 | 1.6 | 3.2 | 0.00 | 0.03 | 0.03 | 73 | 1012.5 |
| 20260906030011 | 26 | 145 | 0.0 | 3.2 | 0.00 | 0.03 | 0.03 | 73 | 1012.4 |
| 20260906025828 | 26 | 145 | 0.0 | 3.2 | 0.00 | 0.03 | 0.03 | 73 | 1012.6 |
| 20260906025341 | 26 | 145 | 0.0 | 3.2 | 0.00 | 0.03 | 0.03 | 73 | 1012.4 |
| 20260906024825 | 27 | 144 | 0.0 | 3.2 | 0.00 | 0.03 | 0.03 | 73 | 1012.5 |
| 20260906024531 | 26 | 144 | 0.0 | 3.2 | 0.00 | 0.03 | 0.03 | 73 | 1012.4 |
| 20260906024337 | 26 | 144 | 0.0 | 3.2 | 0.00 | 0.03 | 0.03 | 73 | 1012.5 |
| 20260906023838 | 26 | 141 | 0.0 | 3.2 | 0.00 | 0.03 | 0.03 | 73 | 1012.6 |
| 20260906023330 | 26 | 142 | 0.0 | 1.6 | 0.00 | 0.03 | 0.03 | 73 | 1012.5 |
| 20260906023100 | 26 | 142 | 0.0 | 1.6 | 0.00 | 0.03 | 0.03 | 73 | 1012.5 |
| 20260906022843 | 26 | 142 | 0.0 | 0.0 | 0.00 | 0.03 | 0.03 | 73 | 1012.6 |
| 20260906022327 | 27 | 142 | 0.0 | 1.6 | 0.00 | 0.03 | 0.03 | 73 | 1012.6 |
| 20260906021840 | 27 | 142 | 0.0 | 1.6 | 0.00 | 0.03 | 0.03 | 73 | 1012.4 |
| 20260906021506 | 26 | 142 | 0.0 | 1.6 | 0.00 | 0.03 | 0.03 | 73 | 1012.2 |
| 20260906021344 | 27 | 142 | 0.0 | 1.6 | 0.00 | 0.03 | 0.03 | 73 | 1012.3 |
| 20260906020858 | 27 | 142 | 0.0 | 3.2 | 0.00 | 0.03 | 0.03 | 73 | 1012.2 |
| 20260906020350 | 27 | 142 | 0.0 | 3.2 | 0.00 | 0.03 | 0.03 | 73 | 1012.3 |
| 20260906020005 | 26 | 142 | 0.0 | 3.2 | 0.00 | 0.03 | 0.03 | 73 | 1012.2 |
| 20260906015903 | 27 | 142 | 0.0 | 3.2 | 0.00 | 0.03 | 0.03 | 73 | 1012.3 |
| 20260906015326 | 27 | 142 | 0.0 | 3.2 | 0.00 | 0.03 | 0.03 | 73 | 1012.1 |
| 20260906014839 | 27 | 142 | 0.0 | 1.6 | 0.00 | 0.03 | 0.03 | 73 | 1012.1 |
| 20260906014504 | 26 | 142 | 0.0 | 1.6 | 0.00 | 0.03 | 0.03 | 73 | 1012.0 |
| 20260906014343 | 27 | 142 | 0.0 | 1.6 | 0.00 | 0.03 | 0.03 | 72 | 1012.1 |
| 20260906013856 | 27 | 142 | 0.0 | 0.0 | 0.00 | 0.03 | 0.03 | 72 | 1012.0 |
| 20260906013348 | 27 | 142 | 0.0 | 0.0 | 0.00 | 0.03 | 0.03 | 72 | 1012.0 |
| 20260906013004 | 26 | 142 | 0.0 | 3.2 | 0.00 | 0.03 | 0.03 | 72 | 1011.8 |
| 20260906012832 | 27 | 142 | 0.0 | 3.2 | 0.00 | 0.03 | 0.03 | 72 | 1011.9 |
| 20260906012345 | 27 | 142 | 0.0 | 1.6 | 0.00 | 0.03 | 0.03 | 72 | 1011.7 |
| 20260906011828 | 27 | 142 | 0.0 | 1.6 | 0.00 | 0.03 | 0.03 | 72 | 1011.6 |
| 20260906011523 | 27 | 142 | 0.0 | 1.6 | 0.00 | 0.03 | 0.03 | 72 | 1011.4 |
| 20260906011341 | 27 | 142 | 0.0 | 1.6 | 0.00 | 0.03 | 0.03 | 72 | 1011.6 |
| 20260906010825 | 27 | 142 | 0.0 | 1.6 | 0.00 | 0.03 | 0.03 | 72 | 1011.5 |
| 20260906010334 | 27 | 142 | 0.0 | 1.6 | 0.00 | 0.03 | 0.03 | 72 | 1011.4 |
| 20260906010044 | 27 | 142 | 0.0 | 1.6 | 0.00 | 0.05 | 0.03 | 72 | 1011.3 |
| 20260906005847 | 27 | 142 | 0.0 | 1.6 | 0.00 | 0.05 | 0.03 | 72 | 1011.4 |
| 20260906005330 | 27 | 142 | 0.0 | 1.6 | 0.00 | 0.05 | 0.03 | 72 | 1011.3 |
| 20260906004844 | 27 | 142 | 0.0 | 1.6 | 0.00 | 0.05 | 0.03 | 72 | 1011.2 |
| 20260906004607 | 27 | 142 | 0.0 | 1.6 | 0.00 | 0.05 | 0.03 | 72 | 1011.1 |
| 20260906004328 | 27 | 142 | 0.0 | 1.6 | 0.00 | 0.05 | 0.03 | 72 | 1011.1 |
| 20260906003841 | 27 | 142 | 0.0 | 1.6 | 0.00 | 0.05 | 0.03 | 72 | 1011.2 |
| 20260906003355 | 27 | 142 | 0.0 | 1.6 | 0.00 | 0.05 | 0.03 | 72 | 1011.2 |
| 20260906003103 | 27 | 142 | 0.0 | 1.6 | 0.00 | 0.05 | 0.03 | 72 | 1011.0 |
| 20260906002838 | 27 | 142 | 0.0 | 1.6 | 0.00 | 0.05 | 0.03 | 72 | 1011.1 |
| 20260906002331 | 27 | 142 | 0.0 | 3.2 | 0.00 | 0.05 | 0.03 | 72 | 1011.1 |
| 20260906001834 | 27 | 142 | 1.6 | 3.2 | 0.00 | 0.05 | 0.03 | 72 | 1011.0 |
| 20260906001518 | 27 | 142 | 0.0 | 1.6 | 0.00 | 0.05 | 0.03 | 71 | 1010.8 |
| 20260906001327 | 27 | 142 | 0.0 | 1.6 | 0.00 | 0.05 | 0.03 | 71 | 1010.9 |
| 20260906000840 | 28 | 142 | 0.0 | 1.6 | 0.00 | 0.05 | 0.03 | 71 | 1010.9 |
| 20260906000344 | 28 | 142 | 0.0 | 3.2 | 0.00 | 0.05 | 0.03 | 70 | 1010.8 |
| 20260906000038 | 27 | 142 | 0.0 | 3.2 | 0.00 | 0.38 | 0.03 | 70 | 1010.6 |
| 20260905235857 | 28 | 142 | 0.0 | 3.2 | 0.00 | 0.38 | 0.03 | 70 | 1010.8 |
| 20260905235349 | 28 | 143 | 0.0 | 1.6 | 0.00 | 0.38 | 0.03 | 70 | 1010.9 |
| 20260905234903 | 28 | 143 | 0.0 | 3.2 | 0.00 | 0.38 | 0.03 | 69 | 1010.8 |
| 20260905234516 | 28 | 143 | 0.0 | 3.2 | 0.00 | 0.38 | 0.03 | 69 | 1010.7 |
| 20260905234324 | 28 | 142 | 0.0 | 3.2 | 0.00 | 0.38 | 0.03 | 69 | 1010.7 |
| 20260905233853 | 28 | 208 | 0.0 | 3.2 | 0.00 | 0.38 | 0.03 | 69 | 1010.9 |
| 20260905233346 | 28 | 160 | 0.0 | 4.8 | 0.00 | 0.38 | 0.03 | 68 | 1011.1 |
| 20260905233014 | 28 | 163 | 0.0 | 4.8 | 0.00 | 0.38 | 0.03 | 68 | 1011.0 |
| 20260905232830 | 29 | 187 | 0.0 | 3.2 | 0.00 | 0.38 | 0.03 | 68 | 1011.0 |
| 20260905232343 | 29 | 194 | 0.0 | 3.2 | 0.00 | 0.38 | 0.03 | 68 | 1010.9 |
| 20260905231847 | 29 | 195 | 0.0 | 3.2 | 0.00 | 0.38 | 0.03 | 68 | 1010.8 |
| 20260905231518 | 29 | 195 | 0.0 | 3.2 | 0.00 | 0.38 | 0.03 | 68 | 1010.7 |
| 20260905231409 | 29 | 145 | 0.0 | 3.2 | 0.00 | 0.38 | 0.03 | 67 | 1010.9 |
| 20260905230831 | 30 | 147 | 0.0 | 3.2 | 0.00 | 0.38 | 0.03 | 67 | 1010.8 |
| 20260905230344 | 30 | 161 | 0.0 | 3.2 | 0.00 | 0.38 | 0.03 | 67 | 1010.8 |
| 20260905230012 | 29 | 161 | 0.0 | 3.2 | 0.00 | 0.38 | 0.03 | 66 | 1010.8 |
| 20260905225828 | 30 | 161 | 0.0 | 3.2 | 0.00 | 0.38 | 0.03 | 66 | 1010.9 |
| 20260905225341 | 30 | 165 | 0.0 | 3.2 | 0.00 | 0.38 | 0.03 | 66 | 1011.1 |
| 20260905224825 | 30 | 181 | 0.0 | 1.6 | 0.00 | 0.38 | 0.03 | 66 | 1011.1 |
| 20260905224605 | 30 | 181 | 0.0 | 4.8 | 0.00 | 0.38 | 0.03 | 66 | 1011.0 |
| 20260905224339 | 30 | 167 | 0.0 | 4.8 | 0.00 | 0.38 | 0.03 | 66 | 1011.1 |
| 20260905223852 | 30 | 165 | 1.6 | 6.4 | 0.00 | 0.38 | 0.03 | 67 | 1011.2 |
| 20260905223335 | 30 | 161 | 0.0 | 3.2 | 0.00 | 0.38 | 0.03 | 68 | 1011.1 |
| 20260905223057 | 30 | 163 | 0.0 | 4.8 | 0.00 | 0.38 | 0.03 | 68 | 1011.1 |
| 20260905222849 | 30 | 162 | 0.0 | 4.8 | 0.00 | 0.38 | 0.03 | 68 | 1011.3 |
| 20260905222332 | 30 | 113 | 1.6 | 4.8 | 0.00 | 0.38 | 0.03 | 67 | 1011.3 |
| 20260905221845 | 30 | 116 | 0.0 | 4.8 | 0.00 | 0.38 | 0.03 | 67 | 1011.3 |
| 20260905221506 | 30 | 123 | 0.0 | 4.8 | 0.00 | 0.38 | 0.03 | 67 | 1011.2 |
| 20260905221328 | 30 | 120 | 1.6 | 4.8 | 0.00 | 0.38 | 0.03 | 67 | 1011.4 |
| 20260905220841 | 30 | 130 | 1.6 | 4.8 | 0.00 | 0.38 | 0.03 | 68 | 1011.3 |
| 20260905220325 | 30 | 138 | 1.6 | 9.7 | 0.00 | 0.38 | 0.03 | 68 | 1011.3 |
| 20260905220026 | 30 | 103 | 1.6 | 9.7 | 0.00 | 0.38 | 0.03 | 68 | 1011.3 |
| 20260905215834 | 30 | 103 | 3.2 | 9.7 | 0.00 | 0.38 | 0.03 | 68 | 1011.4 |
| 20260905215347 | 31 | 155 | 3.2 | 8.0 | 0.00 | 0.38 | 0.03 | 68 | 1011.4 |
| 20260905214831 | 31 | 73 | 1.6 | 9.7 | 0.00 | 0.38 | 0.03 | 67 | 1011.4 |
| 20260905214550 | 31 | 90 | 1.6 | 9.7 | 0.00 | 0.38 | 0.03 | 66 | 1011.4 |
| 20260905214344 | 31 | 85 | 1.6 | 9.7 | 0.00 | 0.38 | 0.03 | 66 | 1011.5 |
| 20260905213824 | 32 | 193 | 1.6 | 12.9 | 0.00 | 0.38 | 0.03 | 63 | 1011.6 |
| 20260905213338 | 33 | 67 | 4.8 | 12.9 | 0.00 | 0.38 | 0.03 | 59 | 1011.6 |
| 20260905213105 | 33 | 32 | 0.0 | 4.8 | 0.00 | 0.38 | 0.03 | 54 | 1011.4 |
| 20260905212841 | 34 | 223 | 1.6 | 4.8 | 0.00 | 0.38 | 0.03 | 53 | 1011.4 |
| 20260905212334 | 34 | 223 | 1.6 | 6.4 | 0.00 | 0.38 | 0.03 | 54 | 1011.5 |
| 20260905211847 | 34 | 223 | 3.2 | 8.0 | 0.00 | 0.38 | 0.03 | 53 | 1011.4 |
| 20260905211537 | 33 | 223 | 3.2 | 8.0 | 0.00 | 0.38 | 0.03 | 53 | 1011.4 |
| 20260905211351 | 34 | 223 | 3.2 | 9.7 | 0.00 | 0.38 | 0.03 | 53 | 1011.5 |
| 20260905210843 | 33 | 188 | 1.6 | 9.7 | 0.00 | 0.38 | 0.03 | 57 | 1011.6 |
| 20260905210326 | 33 | 219 | 1.6 | 6.4 | 0.00 | 0.38 | 0.03 | 58 | 1011.4 |
| 20260905210023 | 33 | 219 | 0.0 | 9.7 | 0.00 | 0.38 | 0.03 | 57 | 1011.3 |
| 20260905205840 | 33 | 219 | 0.0 | 9.7 | 0.00 | 0.38 | 0.03 | 57 | 1011.4 |
| 20260905205353 | 33 | 219 | 4.8 | 9.7 | 0.00 | 0.38 | 0.03 | 53 | 1011.4 |
| 20260905204836 | 34 | 150 | 1.6 | 6.4 | 0.00 | 0.38 | 0.03 | 55 | 1011.4 |
| 20260905204538 | 33 | 209 | 0.0 | 6.4 | 0.00 | 0.38 | 0.03 | 55 | 1011.3 |
| 20260905204329 | 34 | 209 | 1.6 | 6.4 | 0.00 | 0.38 | 0.03 | 55 | 1011.4 |
| 20260905203833 | 34 | 111 | 1.6 | 9.7 | 0.00 | 0.38 | 0.03 | 54 | 1011.3 |
| 20260905203326 | 34 | 188 | 3.2 | 9.7 | 0.00 | 0.38 | 0.03 | 54 | 1011.3 |
| 20260905203058 | 33 | 217 | 3.2 | 6.4 | 0.00 | 0.38 | 0.03 | 55 | 1011.2 |
| 20260905202829 | 33 | 229 | 1.6 | 14.5 | 0.00 | 0.38 | 0.03 | 55 | 1011.3 |
| 20260905202343 | 33 | 229 | 3.2 | 14.5 | 0.00 | 0.38 | 0.03 | 56 | 1011.2 |
| 20260905201826 | 33 | 167 | 3.2 | 6.4 | 0.00 | 0.38 | 0.03 | 56 | 1011.2 |
| 20260905201512 | 33 | 223 | 1.6 | 6.4 | 0.00 | 0.38 | 0.03 | 57 | 1011.1 |
| 20260905201335 | 33 | 223 | 1.6 | 9.7 | 0.00 | 0.38 | 0.03 | 57 | 1011.2 |
| 20260905200848 | 33 | 218 | 1.6 | 9.7 | 0.00 | 0.38 | 0.03 | 60 | 1011.3 |
| 20260905200340 | 32 | 213 | 0.0 | 4.8 | 0.00 | 0.38 | 0.03 | 58 | 1011.3 |
| 20260905200020 | 32 | 213 | 1.6 | 4.8 | 0.00 | 0.38 | 0.03 | 58 | 1011.2 |
| 20260905195844 | 33 | 213 | 1.6 | 4.8 | 0.00 | 0.38 | 0.03 | 59 | 1011.3 |
| 20260905195336 | 33 | 213 | 1.6 | 11.3 | 0.00 | 0.38 | 0.03 | 56 | 1011.4 |
| 20260905194840 | 33 | 214 | 3.2 | 11.3 | 0.00 | 0.38 | 0.03 | 56 | 1011.4 |
| 20260905194529 | 33 | 182 | 1.6 | 8.0 | 0.00 | 0.38 | 0.03 | 57 | 1011.2 |
| 20260905194333 | 33 | 202 | 3.2 | 8.0 | 0.00 | 0.38 | 0.03 | 57 | 1011.4 |
| 20260905193837 | 33 | 193 | 3.2 | 6.4 | 0.00 | 0.38 | 0.03 | 57 | 1011.4 |
| 20260905193330 | 33 | 42 | 1.6 | 8.0 | 0.00 | 0.38 | 0.03 | 56 | 1011.5 |
| 20260905193049 | 33 | 300 | 1.6 | 16.1 | 0.00 | 0.38 | 0.03 | 55 | 1011.5 |
| 20260905192843 | 34 | 219 | 4.8 | 16.1 | 0.00 | 0.38 | 0.03 | 54 | 1011.7 |
| 20260905192333 | 34 | 227 | 6.4 | 16.1 | 0.00 | 0.38 | 0.03 | 53 | 1011.9 |
| 20260905191826 | 34 | 169 | 4.8 | 9.7 | 0.00 | 0.38 | 0.03 | 55 | 1012.0 |
| 20260905191605 | 33 | 223 | 4.8 | 9.7 | 0.00 | 0.38 | 0.03 | 55 | 1012.0 |
| 20260905191330 | 34 | 207 | 6.4 | 9.7 | 0.00 | 0.38 | 0.03 | 55 | 1012.1 |
| 20260905190843 | 34 | 124 | 1.6 | 9.7 | 0.00 | 0.38 | 0.03 | 57 | 1012.0 |
| 20260905190337 | 33 | 236 | 3.2 | 9.7 | 0.00 | 0.38 | 0.03 | 59 | 1011.9 |
| 20260905190010 | 32 | 171 | 1.6 | 8.0 | 0.00 | 1.24 | 0.03 | 59 | 1011.8 |
| 20260905185910 | 32 | 165 | 3.2 | 8.0 | 0.00 | 1.24 | 0.03 | 59 | 1012.0 |
| 20260905185353 | 32 | 84 | 3.2 | 8.0 | 0.00 | 1.24 | 0.03 | 59 | 1011.9 |
| 20260905184826 | 32 | 56 | 1.6 | 6.4 | 0.00 | 1.24 | 0.03 | 58 | 1012.0 |
| 20260905184600 | 32 | 89 | 1.6 | 6.4 | 0.00 | 1.24 | 0.03 | 58 | 1012.0 |
| 20260905184326 | 33 | 200 | 1.6 | 6.4 | 0.00 | 1.24 | 0.03 | 59 | 1012.1 |
| 20260905183838 | 33 | 100 | 1.6 | 8.0 | 0.00 | 1.24 | 0.03 | 58 | 1012.2 |
| 20260905183351 | 33 | 238 | 1.6 | 8.0 | 0.00 | 1.24 | 0.03 | 60 | 1012.3 |
| 20260905183009 | 32 | 206 | 1.6 | 12.9 | 0.00 | 1.24 | 0.03 | 60 | 1012.3 |
| 20260905182904 | 33 | 224 | 0.0 | 14.5 | 0.00 | 1.24 | 0.03 | 61 | 1012.3 |
| 20260905182327 | 32 | 214 | 6.4 | 14.5 | 0.00 | 1.24 | 0.03 | 59 | 1012.4 |
| 20260905181840 | 32 | 223 | 3.2 | 9.7 | 0.00 | 1.24 | 0.03 | 61 | 1012.5 |
| 20260905181508 | 32 | 12 | 1.6 | 9.7 | 0.00 | 1.24 | 0.03 | 60 | 1012.5 |
| 20260905181343 | 32 | 17 | 4.8 | 9.7 | 0.00 | 1.24 | 0.03 | 59 | 1012.6 |
| 20260905180857 | 32 | 11 | 1.6 | 9.7 | 0.00 | 1.24 | 0.03 | 61 | 1012.7 |
| 20260905180349 | 32 | 93 | 3.2 | 9.7 | 0.00 | 1.24 | 0.03 | 61 | 1012.6 |
| 20260905180007 | 32 | 60 | 0.0 | 9.7 | 0.00 | 9.60 | 0.03 | 61 | 1012.6 |
| 20260905175832 | 32 | 105 | 1.6 | 9.7 | 0.00 | 9.60 | 0.03 | 61 | 1012.6 |
| 20260905175325 | 32 | 233 | 3.2 | 12.9 | 0.00 | 9.60 | 0.03 | 59 | 1012.7 |
| 20260905174859 | 32 | 221 | 3.2 | 12.9 | 0.00 | 9.60 | 0.03 | 60 | 1012.8 |
| 20260905174505 | 32 | 244 | 3.2 | 12.9 | 0.00 | 9.60 | 0.03 | 61 | 1012.8 |
| 20260905174342 | 32 | 202 | 1.6 | 4.8 | 0.00 | 9.60 | 0.03 | 62 | 1012.9 |
| 20260905173834 | 32 | 281 | 1.6 | 8.0 | 0.00 | 9.60 | 0.03 | 64 | 1013.0 |
| 20260905173338 | 31 | 70 | 3.2 | 8.0 | 0.00 | 9.60 | 0.03 | 63 | 1013.1 |
| 20260905173025 | 31 | 175 | 0.0 | 6.4 | 0.00 | 9.60 | 0.03 | 65 | 1013.1 |
| 20260905172831 | 31 | 53 | 1.6 | 6.4 | 0.00 | 9.60 | 0.03 | 64 | 1013.2 |
| 20260905172344 | 31 | 184 | 1.6 | 6.4 | 0.00 | 9.60 | 0.03 | 64 | 1013.1 |
| 20260905171828 | 31 | 37 | 0.0 | 6.4 | 0.00 | 9.60 | 0.03 | 65 | 1013.2 |
| 20260905171546 | 31 | 36 | 1.6 | 6.4 | 0.00 | 9.60 | 0.03 | 64 | 1013.2 |
| 20260905171357 | 31 | 235 | 1.6 | 6.4 | 0.00 | 9.60 | 0.03 | 64 | 1013.3 |
| 20260905170849 | 32 | 34 | 3.2 | 8.0 | 0.00 | 9.60 | 0.03 | 62 | 1013.4 |
| 20260905170329 | 32 | 186 | 1.6 | 6.4 | 0.00 | 9.60 | 0.03 | 63 | 1013.6 |
| 20260905170045 | 31 | 196 | 0.0 | 8.0 | 0.00 | 10.57 | 0.03 | 63 | 1013.5 |
| 20260905165842 | 32 | 195 | 0.0 | 8.0 | 0.00 | 10.57 | 0.03 | 63 | 1013.7 |
| 20260905165326 | 31 | 213 | 3.2 | 8.0 | 0.00 | 10.57 | 0.03 | 63 | 1013.8 |
| 20260905164859 | 31 | 69 | 0.0 | 6.4 | 0.00 | 10.57 | 0.03 | 64 | 1013.9 |
| 20260905164539 | 31 | 68 | 1.6 | 6.4 | 0.00 | 10.57 | 0.03 | 65 | 1013.9 |
| 20260905164331 | 31 | 232 | 1.6 | 6.4 | 0.00 | 10.57 | 0.03 | 65 | 1014.0 |
| 20260905163905 | 31 | 227 | 1.6 | 8.0 | 0.00 | 10.57 | 0.03 | 65 | 1014.2 |
| 20260905163327 | 31 | 191 | 1.6 | 8.0 | 0.00 | 10.57 | 0.03 | 66 | 1014.3 |
| 20260905163039 | 30 | 97 | 0.0 | 6.4 | 0.00 | 10.57 | 0.03 | 66 | 1014.2 |
| 20260905162901 | 31 | 220 | 1.6 | 9.7 | 0.00 | 10.57 | 0.03 | 66 | 1014.2 |
| 20260905162326 | 31 | 355 | 1.6 | 9.7 | 0.00 | 10.57 | 0.03 | 65 | 1014.2 |
| 20260905161839 | 31 | 355 | 1.6 | 8.0 | 0.00 | 10.57 | 0.03 | 66 | 1014.4 |
| 20260905161606 | 30 | 157 | 1.6 | 8.0 | 0.00 | 10.57 | 0.03 | 67 | 1014.4 |
| 20260905161352 | 30 | 217 | 1.6 | 8.0 | 0.00 | 10.57 | 0.03 | 67 | 1014.5 |
| 20260905160836 | 30 | 207 | 3.2 | 8.0 | 0.00 | 10.57 | 0.03 | 67 | 1014.7 |
| 20260905160327 | 30 | 40 | 3.2 | 8.0 | 0.00 | 10.57 | 0.03 | 68 | 1014.7 |
| 20260905160059 | 30 | 26 | 3.2 | 8.0 | 0.00 | 10.82 | 0.03 | 68 | 1014.7 |
| 20260905155831 | 30 | 351 | 1.6 | 9.7 | 0.00 | 10.82 | 0.03 | 69 | 1014.8 |
| 20260905155324 | 30 | 188 | 3.2 | 9.7 | 0.00 | 10.82 | 0.03 | 68 | 1014.8 |
| 20260905154833 | 30 | 13 | 1.6 | 9.7 | 0.00 | 10.82 | 0.03 | 69 | 1014.8 |
| 20260905154614 | 30 | 92 | 1.6 | 9.7 | 0.00 | 10.82 | 0.03 | 69 | 1014.9 |
| 20260905154333 | 30 | 338 | 1.6 | 11.3 | 0.00 | 10.82 | 0.03 | 69 | 1014.9 |
| 20260905153826 | 30 | 148 | 1.6 | 6.4 | 0.00 | 10.82 | 0.03 | 69 | 1014.9 |
| 20260905153339 | 30 | 23 | 1.6 | 4.8 | 0.00 | 10.82 | 0.03 | 70 | 1015.0 |
| 20260905153104 | 29 | 217 | 0.0 | 4.8 | 0.00 | 10.82 | 0.03 | 70 | 1014.9 |
| 20260905152853 | 30 | 217 | 1.6 | 4.8 | 0.00 | 10.82 | 0.03 | 70 | 1015.0 |
| 20260905152337 | 30 | 217 | 3.2 | 9.7 | 0.00 | 10.82 | 0.03 | 69 | 1015.0 |
| 20260905151830 | 29 | 219 | 4.8 | 9.7 | 0.00 | 10.82 | 0.03 | 70 | 1015.0 |
| 20260905151506 | 28 | 219 | 1.6 | 6.4 | 0.00 | 10.82 | 0.03 | 70 | 1015.0 |
| 20260905151333 | 29 | 223 | 3.2 | 4.8 | 0.00 | 10.82 | 0.03 | 70 | 1015.1 |
| 20260905150826 | 29 | 225 | 1.6 | 4.8 | 0.00 | 10.82 | 0.03 | 71 | 1015.1 |
| 20260905150339 | 29 | 225 | 3.2 | 4.8 | 0.00 | 10.82 | 0.03 | 71 | 1015.0 |
| 20260905150008 | 28 | 226 | 0.0 | 6.4 | 0.00 | 10.90 | 0.03 | 71 | 1014.9 |
| 20260905145843 | 28 | 227 | 1.6 | 8.0 | 0.00 | 10.90 | 0.03 | 71 | 1015.0 |
| 20260905145336 | 28 | 223 | 1.6 | 8.0 | 0.00 | 10.90 | 0.03 | 71 | 1015.0 |
| 20260905144849 | 28 | 227 | 3.2 | 8.0 | 0.00 | 10.90 | 0.03 | 72 | 1015.0 |
| 20260905144522 | 28 | 236 | 3.2 | 8.0 | 0.00 | 10.90 | 0.03 | 71 | 1014.9 |
| 20260905144333 | 28 | 223 | 3.2 | 8.0 | 0.00 | 10.90 | 0.03 | 71 | 1015.0 |
| 20260905143826 | 28 | 221 | 3.2 | 8.0 | 0.00 | 10.90 | 0.03 | 72 | 1015.1 |
| 20260905143330 | 27 | 224 | 1.6 | 6.4 | 0.00 | 10.90 | 0.03 | 74 | 1015.0 |
| 20260905143019 | 27 | 220 | 1.6 | 6.4 | 0.00 | 10.90 | 0.03 | 75 | 1014.9 |
| 20260905142913 | 27 | 221 | 1.6 | 6.4 | 0.00 | 10.90 | 0.03 | 75 | 1014.9 |
| 20260905142356 | 27 | 219 | 1.6 | 4.8 | 0.00 | 10.90 | 0.03 | 77 | 1015.0 |
| 20260905141828 | 27 | 222 | 1.6 | 6.4 | 0.00 | 10.90 | 0.03 | 78 | 1014.9 |
| 20260905141548 | 26 | 196 | 1.6 | 6.4 | 0.00 | 10.90 | 0.03 | 78 | 1014.9 |
| 20260905141341 | 27 | 194 | 3.2 | 8.0 | 0.00 | 10.90 | 0.03 | 79 | 1015.0 |
| 20260905140911 | 26 | 215 | 3.2 | 8.0 | 0.00 | 10.90 | 0.03 | 79 | 1015.1 |
| 20260905140403 | 26 | 240 | 3.2 | 8.0 | 0.00 | 10.90 | 0.03 | 79 | 1015.0 |
| 20260905140012 | 26 | 242 | 0.0 | 4.8 | 0.00 | 10.90 | 0.03 | 79 | 1015.0 |
| 20260905135826 | 26 | 242 | 1.6 | 4.8 | 0.00 | 10.90 | 0.03 | 80 | 1015.1 |
| 20260905135339 | 26 | 242 | 1.6 | 4.8 | 0.00 | 10.90 | 0.03 | 80 | 1015.1 |
| 20260905134852 | 26 | 242 | 1.6 | 4.8 | 0.00 | 10.90 | 0.03 | 80 | 1015.0 |
| 20260905134518 | 25 | 242 | 1.6 | 4.8 | 0.00 | 10.90 | 0.03 | 80 | 1014.9 |
| 20260905134336 | 26 | 242 | 1.6 | 4.8 | 0.00 | 10.90 | 0.03 | 80 | 1014.9 |
| 20260905133825 | 25 | 243 | 1.6 | 4.8 | 0.00 | 10.90 | 0.03 | 80 | 1014.9 |
| 20260905133359 | 25 | 243 | 1.6 | 3.2 | 0.00 | 10.90 | 0.03 | 80 | 1014.9 |
| 20260905133106 | 25 | 243 | 0.0 | 3.2 | 0.00 | 10.90 | 0.03 | 80 | 1014.8 |
| 20260905132851 | 25 | 243 | 0.0 | 4.8 | 0.00 | 10.90 | 0.03 | 80 | 1014.9 |
| 20260905132335 | 25 | 243 | 1.6 | 4.8 | 0.00 | 10.90 | 0.03 | 80 | 1014.9 |
| 20260905131848 | 25 | 243 | 1.6 | 3.2 | 0.00 | 10.90 | 0.03 | 80 | 1014.9 |
| 20260905131502 | 25 | 243 | 0.0 | 3.2 | 0.00 | 10.90 | 0.03 | 80 | 1014.7 |
| 20260905131332 | 25 | 243 | 0.0 | 3.2 | 0.00 | 10.90 | 0.03 | 80 | 1014.8 |